This is the latest recevied weather packets stored in our database for station/object IW0REF-9. If no packets are shown the sender has not sent any weather packets the latest 10 day(s).
| Time | Temp. | Humidity | Pressure | Rain* | Wind** | Luminosity | Snow |
|---|---|---|---|---|---|---|---|
| 1788498350 | 26.11° C | 21% | 1003.1 hPa | - | - | - | - |
| 1788497450 | 25.56° C | 22% | 1003 hPa | - | - | - | - |
| 1788496568 | 25° C | 23% | 1002.8 hPa | - | - | - | - |
| 1788495649 | 25° C | 23% | 1002.9 hPa | - | - | - | - |
| 1788494749 | 25° C | 24% | 1002.9 hPa | - | - | - | - |
| 1788493849 | 25° C | 24% | 1002.7 hPa | - | - | - | - |
| 1788492949 | 25° C | 23% | 1002.8 hPa | - | - | - | - |
| 1788492049 | 25.56° C | 23% | 1002.7 hPa | - | - | - | - |
| 1788491149 | 25.56° C | 23% | 1002.7 hPa | - | - | - | - |
| 1788490249 | 25.56° C | 23% | 1002.6 hPa | - | - | - | - |
| 1788489349 | 26.11° C | 23% | 1002.8 hPa | - | - | - | - |
| 1788488449 | 26.11° C | 23% | 1002.9 hPa | - | - | - | - |
| 1788487548 | 26.11° C | 23% | 1003 hPa | - | - | - | - |
| 1788486648 | 26.11° C | 23% | 1002.9 hPa | - | - | - | - |
| 1788485748 | 25.56° C | 23% | 1002.9 hPa | - | - | - | - |
| 1788484848 | 25.56° C | 23% | 1002.9 hPa | - | - | - | - |
| 1788483948 | 25.56° C | 22% | 1002.8 hPa | - | - | - | - |
| 1788483048 | 26.11° C | 22% | 1002.7 hPa | - | - | - | - |
| 1788482148 | 26.11° C | 22% | 1002.6 hPa | - | - | - | - |
| 1788481248 | 26.11° C | 21% | 1002.8 hPa | - | - | - | - |
| 1788480348 | 26.67° C | 21% | 1002.8 hPa | - | - | - | - |
| 1788479447 | 27.22° C | 21% | 1002.9 hPa | - | - | - | - |
| 1788478547 | 27.22° C | 21% | 1003.1 hPa | - | - | - | - |
| 1788477647 | 26.67° C | 22% | 1003.1 hPa | - | - | - | - |
| 1788476747 | 26.67° C | 21% | 1003.1 hPa | - | - | - | - |
* Rain since midnight (hover to see other rain measurements)
** Current wind speed in m/s (hover to see current wind gust speed)